Weather Roundup
Issued by NWS Corpus Christi, TX

Home | Current Version | Previous Version | Text Only | Print | Product List | Glossary On
Versions: 1 2 3 4 5 6 7 8 9 10 11 12 13 14 15 16 17 18 19 20 21 22 23 24 25 26 27 28 29 30 31 32 33 34 35 36 37 38 39 40 41 42 43 44 45 46 47 48 49 50
000
ASUS44 KCRP 290510
HRRCRP

SOUTH TEXAS REGIONAL WEATHER ROUNDUP
NATIONAL WEATHER SERVICE CORPUS CHRISTI TX
1200 AM CDT THU SEP 29 2016


TXZ229>244-290600-
...CORPUS CHRISTI AREA OBSERVATIONS...

CITY           SKY/WX    TMP DP  RH WIND       PRES   REMARKS
CORPUS CHRISTI CLEAR     76  72  87 CALM      30.05S
NAS CORPUS CHR CLEAR     79  74  84 E3        30.05R
ROCKPORT       CLEAR     75  70  84 CALM      30.05R
KINGSVILLE NAS PTCLDY    76  72  87 CALM      30.06R
ALICE          CLEAR     74  71  91 CALM      30.06R
FALFURRIAS     CLEAR     75  68  79 CALM      30.06S
$$

...VICTORIA AREA OBSERVATIONS...

CITY           SKY/WX    TMP DP  RH WIND       PRES   REMARKS
VICTORIA       CLEAR     72  66  81 N6        30.06S
BEEVILLE       FAIR      71  71 100 CALM      30.07R
PLEASANTON     CLEAR     72  66  83 CALM      30.09R
SAN ANTONIO    PTCLDY    73  65  75 NW6       30.11R
$$

...LAREDO AREA OBSERVATIONS...

CITY           SKY/WX    TMP DP  RH WIND       PRES   REMARKS
LAREDO         CLEAR     78  71  79 SE3       30.09R
COTULLA        CLEAR     76  68  76 CALM      30.08R
DEL RIO        PTCLDY    73  68  84 CALM      30.11R
MCALLEN        CLEAR     79  72  79 CALM      30.06S
HEBBRONVILLE   CLEAR     74  69  84 CALM      30.10R
$$

...OTHER TEXAS OBSERVATIONS...

CITY           SKY/WX    TMP DP  RH WIND       PRES   REMARKS
BROWNSVILLE    PTCLDY    78  76  93 CALM      30.04R
HOUSTON        CLEAR     69  64  84 CALM      30.06S
COL. STATION   CLEAR     68  61  78 W3        30.08R
AUSTIN         CLEAR     64  61  90 W3        30.09S
WACO           CLEAR     59  57  93 SW6       30.09R
FORT WORTH     PTCLDY    74  58  57 N10       30.09R
WICHITA FALLS  CLEAR     67  53  61 NE16      30.17R
LUBBOCK        CLOUDY    63  49  60 CALM      30.26R
EL PASO        FAIR      74  53  48 E12       30.21R
$$

...MARINE OBSERVATIONS...

STATION/POSITION TIME  SKY/WX   TEMP    WIND        PRES    VSBY  WAVE   SWELL
                                AIR SEA DIR/SP/G                  HT/PER HT/PER
                 (UTC)          (F)     (DEG/KT/KT) (MB)    (MI)  (FT/S) (FT/S)
PORT ARANSAS     0400            83 85   80/  6/  6 1017.5R
BUOY 90 E PORT A 0450            83 86   50/  6/  8 1017.1S         1/ 5   2/ 5
BUOY 45 SE BAFFI 0450            83 85   60/ 10/ 12 1016.8R         2/ 5   2/ 5
BUOY 200 E PT IS 0450            83 86  100/  4/  4 1016.0R         1/ 5   2/ 5
BUOY 15 E GALVES 0450            82 85  330/  4/  6 1017.6R         1/ 5   2/ 5
$$



USA.gov is the U.S. government's official web portal to all federal, state and local government web resources and services.